Вернуться в каталог

STARLINK-31873

АктивенСвязьVLEO
NORAD 59790·PAYLOAD·🇺🇸 United States

Запущен May 18, 2024 с Cape Canaveral Space Force Station

Loading…

Ближайшие Пролёты (ближайшие 24 часа)

TLE

СвежийSource: CelesTrak SupGP

Эпоха: Sep 14, 2026, 20:55 UTC

1 59790C 24093J   26257.87201389  .00035347  00000+0  12801-2 0  2570
2 59790  43.0021 220.3507 0001365 264.0707 328.2150 15.27564447    19

Отслеживайте STARLINK-31873 в реальном времени с AllMySat

Download on the App Store